Location: ?
(35.3436°N, 139.3168°E)
Time: 03:41:27
(UTC+00:00)

ISS - Pass Details

Date: 24 January 2021
Orbit: 417 x 422 km, 51.6° (Epoch: 03 March)

Event Time Altitude Azimuth Distance (km) Brightness Sun altitude
Rises 08:21:37 0° 269° (W) 2,363 1.7 -4.5°
Reaches altitude 10° 08:24:20 10° 293° (WNW) 1,503 -0.2 -5.0°
Maximum altitude 08:26:28 16° 332° (NNW) 1,209 -1.3 -5.4°
Drops below altitude 10° 08:28:36 10° 11° (NNE) 1,508 -1.2 -5.8°
Enters shadow 08:30:43 - 31° (NNE) 2,154 -0.6 -6.2°
